This is the latest recevied weather packets stored in our database for station/object OE-11140. If no packets are shown the sender has not sent any weather packets the latest 10 day(s).
| Time | Temp. | Humidity | Pressure | Rain* | Wind** | Luminosity | Snow |
|---|---|---|---|---|---|---|---|
| 1787736316 | 19.44° C | 72% | 1017.5 hPa | 0 mm | - | 325 W/m² | - |
| 1787735489 | 19.44° C | 74% | 1017.5 hPa | 0 mm | - | 298 W/m² | - |
| 1787735116 | 18.89° C | 72% | 1017.5 hPa | 0 mm | - | 239 W/m² | - |
| 1787733689 | 18.89° C | 74% | 1017.5 hPa | 0 mm | - | 623 W/m² | - |
| 1787733316 | 18.33° C | 78% | 1017.7 hPa | 0 mm | - | 364 W/m² | - |
| 1787732715 | 17.78° C | 77% | 1017.9 hPa | 0 mm | - | 219 W/m² | - |
| 1787731889 | 17.22° C | 81% | 1017.9 hPa | 0 mm | - | 232 W/m² | - |
| 1787731516 | 16.67° C | 81% | 1018 hPa | 0 mm | - | 186 W/m² | - |
| 1787730916 | 16.67° C | 82% | 1018 hPa | 0 mm | - | 139 W/m² | - |
| 1787730089 | 16.11° C | 84% | 1018 hPa | 0 mm | - | 119 W/m² | - |
| 1787729716 | 16.11° C | 85% | 1017.8 hPa | 0 mm | - | 113 W/m² | - |
| 1787729116 | 16.11° C | 83% | 1017.9 hPa | 0 mm | - | 93 W/m² | - |
| 1787728288 | 15.56° C | 86% | 1017.9 hPa | 0 mm | - | 106 W/m² | - |
| 1787727916 | 15.56° C | 86% | 1018.1 hPa | 0 mm | - | 245 W/m² | - |
| 1787727316 | 15.56° C | 87% | 1018.2 hPa | 0 mm | - | 119 W/m² | - |
| 1787726727 | 15° C | 88% | 1018.2 hPa | 0 mm | - | 106 W/m² | - |
| 1787726116 | 15° C | 88% | 1018.2 hPa | 0 mm | - | 66 W/m² | - |
| 1787725516 | 15° C | 88% | 1018.2 hPa | 0 mm | - | 66 W/m² | - |
| 1787724688 | 15° C | 88% | 1018.2 hPa | 0 mm | - | 60 W/m² | - |
| 1787724316 | 14.44° C | 89% | 1018.2 hPa | 0 mm | - | 53 W/m² | - |
| 1787723715 | 14.44° C | 90% | 1018 hPa | 0 mm | - | 33 W/m² | - |
| 1787722888 | 14.44° C | 89% | 1018 hPa | 0 mm | - | 33 W/m² | - |
| 1787722516 | 14.44° C | 90% | 1018 hPa | 0 mm | - | 27 W/m² | - |
| 1787721916 | 14.44° C | 90% | 1018 hPa | 0 mm | - | 20 W/m² | - |
| 1787721088 | 14.44° C | 89% | 1018 hPa | 0 mm | - | 27 W/m² | - |
* Rain latest hour (hover to see other rain measurements)
** Current wind speed in m/s (hover to see current wind gust speed)